DELTA 1 DEB, 21570

Orbit data source: Space-Track

DELTA 1 DEB, 21570 is space debris in SSO originally from a launch on Thu, 12 Jun 1975 UTC launched from the Air Force Western Test Range (AFWTR). Debris objects in space refer to the collection of defunct objects orbiting the Earth. Examples of debris include non-operational satellites, rocket bodies, and fragments generated from explosions, collisions, or faulty payload assembly.

Loading next visibility...
Identifier
21570, 1975-052HQ
Orbit
SSO
Country
Flag of USUS
Related business
Manufacturer
Unknown
Mission
Spacecraft
Bus & Motor
Unknown
Mass
Unknown
Launch date (UTC)
1975-06-12 (51 years ago)
Launch vehicle
Unknown
Launch site
Air Force Western Test Range (AFWTR)
Object type
Payload
Rocket body
Debris
Shape & HBR
Unknown shape, 0.1 m
Radar Cross Section
Medium (>0.1 m² and <1 m²)

Expand to show TLE details & history
Last TLE update: 3 days ago

TLE from 3 days ago
0 DELTA 1 DEB
1 21570U 75052HQ  26170.03445565  .00000806  00000-0  43737-2 0  9992
2 21570  99.5423 350.1846 0696780  80.0974  39.4297 12.09514019348292
Epoch: 2026-06-19T00:49Z
TLE epoch observation values (Epoch: 2026-06-19T00:49:36.968Z)
Latitude
54.0234°
Longitude
-96.16857°
Altitude
1,232.777 km
Speed
7.429 km/s
True Right ascension
12h 14m 01s
True Declination
53° 52' 12"
Sunlit
Object was in daylight at epoch
Visualization orbit readout
Latitude
Unknown
Longitude
Unknown
Altitude
Unknown
Speed
Unknown
Apparent Right ascension
Unknown
Apparent Declination
Unknown
Sunlit
N/A
Visualization observer readout
Local Sidereal Time
11:14:04
Azimuth
Unknown
Elevation
Unknown
Doppler factor
Unknown
Orbital elements
Apogee altitude
2,194.42 km
Perigee altitude
1,077.6 km
Semi-major axis
8,014.147 km
Eccentricity
0.06968
Inclination
99.5423°
RAAN
350.1846°
Arg. of periapsis
80.0974°
True anomaly
44.85733°
Mean anomaly
39.4297°
Eccentric anomaly
42.10655°
Mean motion
3.02522 °/min
Orbital period
119 mins
BSTAR
0.0043737
Loading maneuver chart data...
Computing Atmospheric mass density...
Loading historical data...
Loading historical data...
Loading historical data...
Loading historical data...
Loading historical data...
Loading historical data...
Loading historical data...

Documentation

Showing up to 5 results
|